ICE4BE BIKF-ENBR

Flight info

Callsign ICE4BE
Flight time N/A
Altitude 35000
Route OSKUM3D OSKUM DCT 63N010W DCT GUNPA/N0464F350 DCT MODNI
Aircraft B38M/M-SDE1FGHILORVWXY/HB1

Departure

Time N/A
Airport Keflavik International Airport (BIKF)

Arrival

Time 2026-05-03 20:54
Airport Bergen Airport, Flesland (ENBR)
Time Latitude Longitude Altitude Speed Heading
2026-05-03 20:15 61.59097 -2.79101 34890 ft 526 kts 114°
2026-05-03 20:15 61.56289 -2.64944 34883 ft 525 kts 114°
2026-05-03 20:16 61.53469 -2.50828 34876 ft 525 kts 114°
2026-05-03 20:16 61.50632 -2.36721 34875 ft 525 kts 115°
2026-05-03 20:17 61.47777 -2.22630 34875 ft 525 kts 115°
2026-05-03 20:17 61.44929 -2.08666 34873 ft 525 kts 115°
2026-05-03 20:18 61.42058 -1.94685 34867 ft 524 kts 115°
2026-05-03 20:18 61.39168 -1.80707 34870 ft 524 kts 115°
2026-05-03 20:19 61.36263 -1.66753 34867 ft 524 kts 115°
2026-05-03 20:19 61.33351 -1.52862 34864 ft 524 kts 116°
2026-05-03 20:20 61.30434 -1.39034 34856 ft 524 kts 116°
2026-05-03 20:20 61.27493 -1.25187 34859 ft 522 kts 116°
2026-05-03 20:21 61.24548 -1.11418 34864 ft 522 kts 116°
2026-05-03 20:21 61.21591 -0.97677 34859 ft 522 kts 116°
2026-05-03 20:22 61.18616 -0.83948 34858 ft 522 kts 116°
2026-05-03 20:22 61.15626 -0.70234 34857 ft 522 kts 116°
2026-05-03 20:23 61.12620 -0.56541 34855 ft 521 kts 117°
2026-05-03 20:23 61.09605 -0.42896 34857 ft 521 kts 117°
2026-05-03 20:24 61.06594 -0.29354 34858 ft 521 kts 117°
2026-05-03 20:24 61.03555 -0.15777 34806 ft 521 kts 117°
2026-05-03 20:25 61.00515 -0.02261 34859 ft 519 kts 117°
2026-05-03 20:25 60.98035 0.09047 34861 ft 518 kts 117°
2026-05-03 20:26 60.95044 0.22519 34862 ft 517 kts 117°
2026-05-03 20:26 60.91544 0.38164 34862 ft 517 kts 117°
2026-05-03 20:27 60.89011 0.49413 34862 ft 517 kts 117°
2026-05-03 20:27 60.85997 0.62725 34865 ft 518 kts 117°
2026-05-03 20:28 60.82951 0.76089 34865 ft 516 kts 118°
2026-05-03 20:28 60.79903 0.89383 34867 ft 515 kts 118°
2026-05-03 20:29 60.76854 1.02600 34868 ft 515 kts 118°
2026-05-03 20:29 60.73775 1.15865 34847 ft 514 kts 118°
2026-05-03 20:30 60.70696 1.29044 34879 ft 513 kts 118°
2026-05-03 20:30 60.67631 1.42088 34879 ft 512 kts 119°
2026-05-03 20:31 60.64541 1.55158 34881 ft 511 kts 119°
2026-05-03 20:31 60.61437 1.68208 34889 ft 511 kts 119°
2026-05-03 20:32 60.58338 1.81160 34889 ft 511 kts 119°
2026-05-03 20:32 60.55213 1.94145 34889 ft 511 kts 120°
2026-05-03 20:33 60.52075 2.07103 34887 ft 510 kts 120°
2026-05-03 20:33 60.48942 2.19965 34726 ft 501 kts 120°
2026-05-03 20:33 60.47392 2.26294 33803 ft 504 kts 121°
2026-05-03 20:34 60.45838 2.32626 32821 ft 507 kts 121°
2026-05-03 20:34 60.44257 2.39055 32194 ft 500 kts 121°
2026-05-03 20:34 60.42725 2.45266 31358 ft 499 kts 121°
2026-05-03 20:34 60.41175 2.51525 30490 ft 497 kts 122°
2026-05-03 20:35 60.39623 2.57780 29460 ft 497 kts 122°
2026-05-03 20:35 60.38067 2.64035 28370 ft 500 kts 122°
2026-05-03 20:35 60.36497 2.70326 27199 ft 502 kts 122°
2026-05-03 20:35 60.34920 2.76627 26080 ft 503 kts 121°
2026-05-03 20:36 60.33339 2.82924 24997 ft 503 kts 121°
2026-05-03 20:36 60.31755 2.89218 23969 ft 502 kts 121°
2026-05-03 20:36 60.30172 2.95488 22958 ft 499 kts 121°
2026-05-03 20:36 60.28611 3.01653 22365 ft 488 kts 121°
2026-05-03 20:37 60.27083 3.07671 21704 ft 480 kts 121°
2026-05-03 20:37 60.25564 3.13638 20925 ft 476 kts 121°
2026-05-03 20:37 60.24056 3.19543 20209 ft 472 kts 121°
2026-05-03 20:37 60.22557 3.25402 19496 ft 468 kts 121°
2026-05-03 20:38 60.21084 3.31143 18793 ft 465 kts 121°
2026-05-03 20:38 60.19602 3.36904 18070 ft 462 kts 121°
2026-05-03 20:38 60.18130 3.42613 17301 ft 458 kts 121°
2026-05-03 20:38 60.16670 3.48260 16597 ft 453 kts 121°
2026-05-03 20:39 60.15230 3.53813 15924 ft 448 kts 121°
2026-05-03 20:39 60.13798 3.59328 15253 ft 443 kts 121°
2026-05-03 20:39 60.12377 3.64793 14609 ft 438 kts 121°
2026-05-03 20:39 60.10973 3.70178 13985 ft 433 kts 121°
2026-05-03 20:40 60.09596 3.75448 13379 ft 427 kts 121°
2026-05-03 20:40 60.08224 3.80686 12752 ft 422 kts 121°
2026-05-03 20:40 60.06861 3.85879 12078 ft 418 kts 121°
2026-05-03 20:40 60.05519 3.90979 11654 ft 409 kts 121°
2026-05-03 20:41 60.04465 3.96171 11478 ft 398 kts 105°
2026-05-03 20:41 60.04227 4.01580 11319 ft 387 kts 86°
2026-05-03 20:41 60.04695 4.06775 11163 ft 373 kts 76°
2026-05-03 20:41 60.05302 4.11760 10978 ft 362 kts 76°
2026-05-03 20:42 60.05885 4.16527 10802 ft 352 kts 76°
2026-05-03 20:42 60.06459 4.21235 10632 ft 343 kts 76°
2026-05-03 20:42 60.07014 4.25817 10494 ft 333 kts 76°
2026-05-03 20:42 60.07550 4.30260 10331 ft 324 kts 76°
2026-05-03 20:43 60.08069 4.34572 10274 ft 311 kts 76°
2026-05-03 20:43 60.08565 4.38696 10257 ft 298 kts 76°
2026-05-03 20:43 60.09040 4.42671 10176 ft 289 kts 76°
2026-05-03 20:43 60.09513 4.46632 10071 ft 298 kts 76°
2026-05-03 20:44 60.09998 4.50709 9897 ft 304 kts 76°
2026-05-03 20:44 60.10491 4.54858 9548 ft 308 kts 76°
2026-05-03 20:44 60.10984 4.59021 9207 ft 307 kts 76°
2026-05-03 20:44 60.11468 4.63122 8937 ft 303 kts 76°
2026-05-03 20:45 60.11774 4.67269 8625 ft 299 kts 94°
2026-05-03 20:45 60.11460 4.71352 8348 ft 294 kts 102°
2026-05-03 20:45 60.11110 4.75332 8213 ft 285 kts 102°
2026-05-03 20:45 60.10767 4.79192 8089 ft 276 kts 102°
2026-05-03 20:46 60.10433 4.82919 7961 ft 268 kts 102°
2026-05-03 20:46 60.10102 4.86594 7656 ft 269 kts 102°
2026-05-03 20:46 60.09771 4.90248 7290 ft 271 kts 102°
2026-05-03 20:46 60.09429 4.94007 6922 ft 273 kts 102°
2026-05-03 20:47 60.09086 4.97766 6556 ft 276 kts 102°
2026-05-03 20:47 60.08739 5.01560 6188 ft 277 kts 101°
2026-05-03 20:47 60.08391 5.05343 5813 ft 276 kts 101°
2026-05-03 20:47 60.08048 5.09068 5398 ft 268 kts 101°
2026-05-03 20:48 60.07713 5.12692 5036 ft 260 kts 101°
2026-05-03 20:48 60.07704 5.16217 4662 ft 252 kts 73°
2026-05-03 20:48 60.08423 5.19271 4328 ft 241 kts 59°
2026-05-03 20:48 60.09231 5.22164 4000 ft 235 kts 59°
2026-05-03 20:49 60.10057 5.24923 3708 ft 225 kts 47°
2026-05-03 20:49 60.11261 5.26684 3476 ft 209 kts 17°
2026-05-03 20:49 60.12635 5.27199 3276 ft 195 kts 359°
2026-05-03 20:49 60.13946 5.27001 3057 ft 184 kts 349°
2026-05-03 20:50 60.15171 5.26570 2855 ft 173 kts 348°
2026-05-03 20:50 60.16326 5.26169 2627 ft 165 kts 348°
2026-05-03 20:50 60.17421 5.25800 2413 ft 155 kts 349°
2026-05-03 20:50 60.18459 5.25452 2199 ft 145 kts 349°
2026-05-03 20:51 60.19418 5.25131 2022 ft 136 kts 349°
2026-05-03 20:51 60.20349 5.24819 1863 ft 135 kts 348°
2026-05-03 20:51 60.21272 5.24511 1657 ft 134 kts 348°
2026-05-03 20:51 60.22186 5.24206 1464 ft 133 kts 349°
2026-05-03 20:52 60.23101 5.23903 1269 ft 134 kts 349°
2026-05-03 20:52 60.24017 5.23601 1085 ft 133 kts 349°
2026-05-03 20:52 60.24939 5.23291 860 ft 135 kts 348°
2026-05-03 20:52 60.25863 5.22957 673 ft 134 kts 347°
2026-05-03 20:53 60.26782 5.22648 492 ft 134 kts 348°
2026-05-03 20:53 60.27709 5.22368 316 ft 134 kts 348°
2026-05-03 20:53 60.28603 5.22068 170 ft 128 kts 348°
2026-05-03 20:53 60.29291 5.21832 158 ft 69 kts 350°
2026-05-03 20:54 60.29606 5.21724 151 ft 25 kts 352°
2026-05-03 20:54 60.29719 5.21945 150 ft 9 kts 93°
2026-05-03 20:54 60.29698 5.22011 150 ft 4 kts 153°
2026-05-03 20:55 60.29643 5.22035 150 ft 13 kts 170°
2026-05-03 20:55 60.29516 5.22079 157 ft 23 kts 171°
2026-05-03 20:55 60.29336 5.22135 163 ft 27 kts 171°
2026-05-03 20:55 60.29171 5.22194 165 ft 15 kts 171°
2026-05-03 20:56 60.29057 5.22232 165 ft 18 kts 171°
2026-05-03 20:56 60.28970 5.22261 164 ft 7 kts 171°
2026-05-03 20:56 60.28939 5.22302 165 ft 5 kts 118°
2026-05-03 20:56 60.28932 5.22353 167 ft 3 kts 112°
2026-05-03 20:57 60.28925 5.22375 168 ft 1 kts 127°
2026-05-03 20:57 60.28912 5.22395 169 ft 5 kts 151°
2026-05-03 20:57 60.28889 5.22418 170 ft 2 kts 134°
2026-05-03 20:57 60.28885 5.22431 170 ft 0 kts 115°
2026-05-03 20:58 60.28885 5.22441 171 ft 2 kts 100°
2026-05-03 20:58 60.28888 5.22490 173 ft 4 kts 79°
2026-05-03 20:58 60.28890 5.22511 174 ft 2 kts 81°
2026-05-03 20:58 60.28891 5.22529 175 ft 1 kts 83°
2026-05-03 20:59 60.28891 5.22530 175 ft 0 kts 83°
2026-05-03 20:59 60.28892 5.22532 175 ft 1 kts 83°
2026-05-03 20:59 60.28892 5.22544 175 ft 0 kts 83°